User: anonymous
Location: Hartman Creek State Park
(44.3257°N, 89.2134°W)
Time: 06:37:42
(UTC-05:00)
Language:

Terra - Orbit

View from above orbital plane
View from above orbital plane
View from above satellite
View from above satellite

Ground track
Ground track

The orbit data is extracted from the following two-line orbital elements,

1 25994U 99068A   14250.43693071  .00000269  00000-0  59766-4 0  5626
2 25994 098.2064 324.0106 0000698 086.9405 273.2503 14.57111837783043
Epoch (UTC): 07 September 2014 10:29:10
Eccentricity: 0.0000698
inclination: 98.2064°
perigee height: 702 km
apogee height: 703 km
right ascension of ascending node: 324.0106°
argument of perigee: 86.9405°
revolutions per day: 14.57111837
mean anomaly at epoch: 273.2503°
orbit number at epoch: 78304

The dashed part of the orbit path shows where the satellite is in the earth's shadow,  

DLR